KQ4KX Weather Reports


time (UTC)temp
C
wind
direction
speed
KPH
gust
KPH
rain 1hr
cm
rain 24hr
cm
rain mn
cm
humidity
%
barometer
mb
20260510113439 23 206 0.0 1.6 0.00 0.03 0.00 95 1015.7
20260510113236 23 206 0.0 1.6 0.00 0.03 0.00 95 1015.7
20260510112334 23 0 0.0 0.0 0.00 0.03 0.00 95 1015.4
20260510112136 23 0 0.0 0.0 0.00 0.03 0.00 95 1015.4
20260510111037 23 206 0.0 1.6 0.00 0.03 0.00 95 1015.3
20260510110711 23 0 0.0 0.0 0.00 0.03 0.00 95 1015.1
20260510110536 23 0 0.0 0.0 0.00 0.03 0.00 95 1015.1
20260510105836 23 0 0.0 0.0 0.00 0.03 0.00 94 1014.9
20260510105536 23 0 0.0 0.0 0.00 0.03 0.00 94 1014.9
20260510105006 23 0 0.0 0.0 0.00 0.03 0.00 94 1014.8
20260510103936 23 0 0.0 0.0 0.00 0.03 0.00 94 1014.6
20260510103614 23 0 0.0 0.0 0.00 0.03 0.00 94 1014.5
20260510103436 23 0 0.0 0.0 0.00 0.03 0.00 94 1014.5
20260510103115 23 202 0.0 1.6 0.00 0.03 0.00 94 1014.4
20260510102906 23 202 0.0 1.6 0.00 0.03 0.00 94 1014.4
20260510102406 23 202 0.0 1.6 0.00 0.03 0.00 94 1014.4
20260510101554 23 178 0.0 3.2 0.00 0.03 0.00 94 1014.0
20260510101336 23 178 0.0 3.2 0.00 0.03 0.00 94 1014.0
20260510100836 23 171 1.6 4.8 0.00 0.03 0.00 93 1013.8
20260510095307 23 178 1.6 8.0 0.00 0.03 0.00 93 1013.8
20260510093236 23 173 1.6 6.4 0.00 0.03 0.00 93 1013.8
20260510092706 23 176 1.6 6.4 0.00 0.03 0.00 93 1013.8
20260510092136 23 169 1.6 6.4 0.00 0.03 0.00 94 1013.7
20260510091638 23 160 1.6 6.4 0.00 0.03 0.00 94 1013.7
20260510091106 23 171 1.6 8.0 0.00 0.03 0.00 93 1013.6
20260510090606 23 169 3.2 8.0 0.00 0.03 0.00 93 1013.6
20260510085536 23 170 3.2 11.3 0.00 0.03 0.00 93 1013.6
20260510084633 23 178 3.2 11.3 0.00 0.03 0.00 92 1013.6
20260510084536 23 178 3.2 11.3 0.00 0.03 0.00 92 1013.6
20260510083731 23 169 1.6 8.0 0.00 0.03 0.00 92 1013.6
20260510083536 23 169 1.6 8.0 0.00 0.03 0.00 92 1013.6
20260510083006 23 177 1.6 8.0 0.00 0.03 0.00 93 1013.6
20260510082436 23 174 1.6 8.0 0.00 0.03 0.00 93 1013.7
20260510082049 23 165 1.6 8.0 0.00 0.03 0.00 93 1013.7
20260510081936 23 165 1.6 8.0 0.00 0.03 0.00 93 1013.7
20260510081436 23 171 1.6 8.0 0.00 0.03 0.00 93 1013.7
20260510080936 23 175 1.6 8.0 0.00 0.03 0.00 93 1013.7
20260510075906 23 175 1.6 3.2 0.00 0.03 0.00 93 1013.7
20260510075601 23 175 1.6 3.2 0.00 0.03 0.00 93 1013.7
20260510075336 23 175 1.6 3.2 0.00 0.03 0.00 93 1013.7
20260510074836 23 177 1.6 3.2 0.00 0.03 0.00 92 1013.8
20260510074224 23 176 1.6 4.8 0.00 0.03 0.00 92 1014.2
20260510073806 23 176 1.6 4.8 0.00 0.03 0.00 92 1014.2
20260510072706 23 179 0.0 1.6 0.00 0.03 0.00 93 1014.1
20260510072309 23 157 0.0 1.6 0.00 0.03 0.00 93 1014.0
20260510072206 23 157 0.0 1.6 0.00 0.03 0.00 93 1014.0
20260510071636 23 121 0.0 4.8 0.00 0.03 0.00 92 1014.0
20260510071106 23 119 0.0 4.8 0.00 0.03 0.00 92 1014.0
20260510065536 23 0 0.0 0.0 0.00 0.03 0.00 92 1014.2
20260510065006 23 0 0.0 0.0 0.00 0.03 0.00 92 1014.2
20260510064436 23 107 0.0 4.8 0.00 0.03 0.00 92 1014.4
20260510063936 23 102 1.6 4.8 0.00 0.03 0.00 92 1014.4
20260510063225 24 104 3.2 6.4 0.00 0.03 0.00 91 1014.4
20260510062336 24 104 3.2 6.4 0.00 0.03 0.00 91 1014.4
20260510061306 24 106 3.2 6.4 0.00 0.03 0.00 91 1014.5
20260510055236 24 106 1.6 4.8 0.00 0.03 0.00 90 1014.8
20260510055133 24 110 1.6 4.8 0.00 0.03 0.00 90 1014.8
20260510054707 24 110 1.6 4.8 0.00 0.03 0.00 90 1014.8
20260510054231 24 109 1.6 6.4 0.00 0.03 0.00 89 1014.9
20260510054136 24 109 1.6 6.4 0.00 0.03 0.00 89 1014.9
20260510053636 24 105 3.2 6.4 0.00 0.03 0.00 90 1014.9
20260510053411 24 103 4.8 6.4 0.00 0.03 0.00 90 1014.9
20260510053141 24 103 4.8 6.4 0.00 0.03 0.00 90 1014.9
20260510053106 24 103 4.8 6.4 0.00 0.03 0.00 90 1014.9
20260510052653 24 97 6.4 11.3 0.00 0.03 0.00 89 1014.8
20260510052606 24 97 6.4 11.3 0.00 0.03 0.00 89 1014.8
20260510052036 24 92 4.8 11.3 0.00 0.03 0.00 89 1014.9
20260510051506 24 96 6.4 12.9 0.00 0.03 0.00 89 1015.0
20260510051006 25 102 6.4 12.9 0.00 0.03 0.00 89 1015.1
20260510050506 25 105 4.8 9.7 0.00 0.03 0.00 89 1015.2
20260510044936 25 105 6.4 11.3 0.00 0.03 0.00 88 1015.4
20260510043907 25 98 6.4 12.9 0.00 0.03 0.00 88 1015.2
20260510043406 25 94 4.8 11.3 0.00 0.03 0.00 88 1015.4
20260510042336 25 96 3.2 6.4 0.00 0.03 0.00 88 1015.3
20260510041806 25 95 3.2 9.7 0.00 0.03 0.00 87 1015.3
20260510040810 25 93 3.2 11.3 0.00 0.03 0.00 87 1015.2
20260510040736 25 93 3.2 11.3 0.00 0.03 0.00 87 1015.2
20260510040236 25 93 3.2 6.4 0.00 0.03 0.00 87 1015.3
20260510035706 25 94 3.2 6.4 0.00 0.03 0.03 87 1015.4
20260510035136 25 83 3.2 6.4 0.00 0.03 0.03 87 1015.3
20260510034636 25 77 3.2 8.0 0.00 0.03 0.03 87 1015.3
20260510034136 25 87 3.2 11.3 0.00 0.03 0.03 87 1015.5
20260510033636 25 95 4.8 11.3 0.00 0.03 0.03 86 1015.4
20260510033136 25 92 4.8 11.3 0.00 0.03 0.03 86 1015.4
20260510032636 25 87 4.8 11.3 0.00 0.03 0.03 86 1015.4
20260510031606 26 87 4.8 12.9 0.00 0.03 0.03 85 1015.2
20260510031036 26 83 3.2 11.3 0.00 0.03 0.03 85 1015.3
20260510030536 26 64 1.6 3.2 0.00 0.03 0.03 84 1015.3
20260510030036 26 51 1.6 3.2 0.00 0.03 0.03 84 1015.2
20260510025506 26 53 1.6 3.2 0.00 0.03 0.03 84 1015.3
20260510025006 26 64 1.6 3.2 0.00 0.03 0.03 84 1015.2
20260510024436 26 67 1.6 4.8 0.00 0.03 0.03 83 1015.1
20260510023936 26 55 1.6 4.8 0.00 0.03 0.03 83 1015.1
20260510023406 26 45 1.6 3.2 0.00 0.03 0.03 83 1015.0
20260510022906 26 42 1.6 3.2 0.00 0.03 0.03 82 1015.0
20260510022406 26 53 1.6 3.2 0.00 0.03 0.03 83 1014.9
20260510021906 26 54 1.6 3.2 0.00 0.03 0.03 82 1015.0
20260510021336 26 41 1.6 4.8 0.00 0.03 0.03 82 1014.9
20260510020836 26 41 1.6 4.8 0.00 0.03 0.03 81 1014.8
20260510020306 26 40 1.6 4.8 0.00 0.03 0.03 81 1014.9
20260510015806 27 37 3.2 4.8 0.00 0.03 0.03 80 1014.8
20260510014736 27 30 3.2 6.4 0.00 0.03 0.03 80 1014.7
20260510014236 27 33 3.2 6.4 0.00 0.03 0.03 79 1014.6
20260510013736 27 47 3.2 6.4 0.00 0.03 0.03 79 1014.5
20260510013236 27 42 3.2 6.4 0.00 0.03 0.03 79 1014.3
20260510012706 27 38 4.8 6.4 0.00 0.03 0.03 78 1014.3
20260510012136 28 41 3.2 6.4 0.00 0.03 0.03 76 1014.2
20260510011636 28 37 3.2 6.4 0.00 0.03 0.03 74 1014.1
20260510011136 28 15 3.2 6.4 0.00 0.03 0.03 69 1014.0
20260510010636 28 328 1.6 4.8 0.00 0.03 0.03 63 1013.9
20260510010106 28 312 1.6 4.8 0.00 0.03 0.03 62 1013.6
20260510005536 29 312 3.2 4.8 0.00 0.03 0.03 61 1013.5
20260510005006 29 312 1.6 4.8 0.00 0.03 0.03 61 1013.4
20260510003936 29 308 1.6 3.2 0.00 0.03 0.03 60 1013.2
20260510003436 29 301 1.6 3.2 0.00 0.03 0.03 60 1013.1
20260510002936 29 299 1.6 4.8 0.00 0.03 0.03 60 1013.1
20260510002436 29 305 1.6 4.8 0.00 0.03 0.03 59 1013.1
20260510001936 30 309 3.2 4.8 0.00 0.03 0.03 59 1013.0
20260510001436 30 307 3.2 6.4 0.00 0.03 0.03 59 1012.9
20260510000906 30 305 3.2 6.4 0.00 0.03 0.03 59 1012.8
20260510000336 30 298 3.2 6.4 0.00 0.03 0.03 58 1012.6
20260509235836 30 297 3.2 6.4 0.00 0.03 0.03 58 1012.6
20260509234236 30 292 3.2 11.3 0.00 0.03 0.03 59 1012.4
20260509233706 30 293 3.2 11.3 0.00 0.03 0.03 60 1012.4
20260509233206 31 294 4.8 11.3 0.00 0.03 0.03 60 1012.3
20260509232706 31 291 4.8 11.3 0.00 0.03 0.03 60 1012.1
20260509232206 31 288 4.8 11.3 0.00 0.03 0.03 60 1012.1
20260509231636 31 278 6.4 16.1 0.00 0.03 0.03 59 1012.1
20260509230606 31 277 6.4 16.1 0.00 0.03 0.03 58 1012.0
20260509230106 31 276 6.4 16.1 0.00 0.03 0.03 57 1011.9
20260509225606 31 288 4.8 12.9 0.00 0.03 0.03 57 1011.8
20260509225036 32 300 4.8 12.9 0.00 0.03 0.03 56 1011.8
20260509224036 32 269 6.4 14.5 0.00 0.03 0.03 56 1011.6
20260509223006 32 290 6.4 12.9 0.00 0.03 0.03 56 1011.6
20260509222436 32 288 6.4 12.9 0.00 0.03 0.03 55 1011.6
20260509221906 32 278 4.8 14.5 0.00 0.03 0.03 56 1011.6
20260509221406 32 270 4.8 14.5 0.00 0.03 0.03 56 1011.6
20260509220906 32 274 6.4 17.7 0.00 0.03 0.03 56 1011.5
20260509220406 32 287 6.4 17.7 0.00 0.03 0.03 56 1011.5
20260509215836 33 292 6.4 12.9 0.00 0.03 0.03 56 1011.5
20260509215336 32 284 6.4 11.3 0.00 0.03 0.03 56 1011.5
20260509214836 32 289 4.8 11.3 0.00 0.03 0.03 57 1011.4
20260509214306 32 290 4.8 11.3 0.00 0.03 0.03 58 1011.4
20260509213306 32 238 4.8 11.3 0.00 0.03 0.03 61 1011.3
20260509212806 31 202 4.8 11.3 0.03 0.03 0.03 68 1011.3
20260509212236 31 181 4.8 11.3 0.03 0.03 0.03 69 1011.2
20260509211736 31 175 4.8 11.3 0.03 0.03 0.03 71 1011.1
20260509211236 30 180 3.2 9.7 0.03 0.03 0.03 71 1011.3
20260509210707 30 187 3.2 8.0 0.03 0.03 0.03 75 1011.2
20260509210206 30 202 1.6 8.0 0.03 0.03 0.03 80 1011.2
20260509205636 28 239 3.2 6.4 0.03 0.03 0.03 79 1011.2
20260509205136 28 244 3.2 6.4 0.03 0.03 0.03 78 1011.2
20260509204606 28 225 3.2 24.1 0.03 0.03 0.03 81 1011.2
20260509203606 28 245 11.3 32.2 0.03 0.03 0.03 79 1011.3
20260509203036 30 262 9.7 32.2 0.00 0.00 0.00 68 1011.4
20260509201936 33 273 4.8 12.9 0.00 0.00 0.00 54 1011.2
20260509201406 33 265 6.4 12.9 0.00 0.00 0.00 54 1011.3
20260509200836 33 261 6.4 12.9 0.00 0.00 0.00 55 1011.3
20260509195236 33 265 6.4 14.5 0.00 0.00 0.00 53 1011.5
20260509194706 33 263 6.4 14.5 0.00 0.00 0.00 54 1011.4
20260509194136 33 255 6.4 14.5 0.00 0.00 0.00 53 1011.6
20260509193636 33 245 6.4 14.5 0.00 0.00 0.00 53 1011.6
20260509193155 33 249 6.4 14.5 0.00 0.00 0.00 54 1011.6
20260509193106 33 249 6.4 14.5 0.00 0.00 0.00 54 1011.6
20260509192606 33 254 4.8 14.5 0.00 0.00 0.00 53 1011.7
20260509192256 34 222 4.8 16.1 0.00 0.00 0.00 52 1011.8
20260509192106 34 222 4.8 16.1 0.00 0.00 0.00 52 1011.8
20260509191606 34 236 8.0 17.7 0.00 0.00 0.00 52 1011.8
20260509191036 34 249 6.4 17.7 0.00 0.00 0.00 52 1011.9
20260509190536 34 262 4.8 14.5 0.00 0.00 0.00 52 1012.0
20260509190006 34 254 6.4 17.7 0.00 0.00 0.00 51 1011.9
20260509185506 34 243 8.0 19.3 0.00 0.00 0.00 53 1012.1
20260509184936 34 239 6.4 19.3 0.00 0.00 0.00 52 1012.1
20260509184406 34 235 4.8 14.5 0.00 0.00 0.00 51 1012.1
20260509183906 34 240 4.8 14.5 0.00 0.00 0.00 52 1012.2
20260509183406 34 245 6.4 20.9 0.00 0.00 0.00 52 1012.3
20260509182906 34 239 6.4 20.9 0.00 0.00 0.00 52 1012.3
20260509182336 34 233 4.8 16.1 0.00 0.00 0.00 53 1012.4
20260509181836 34 264 6.4 16.1 0.00 0.00 0.00 52 1012.4
20260509181336 34 273 6.4 16.1 0.00 0.00 0.00 51 1012.5
20260509180836 33 258 6.4 19.3 0.00 0.00 0.00 53 1012.5
20260509180336 33 244 6.4 19.3 0.00 0.00 0.00 51 1012.6
20260509175805 33 237 8.0 19.3 0.00 0.00 0.00 53 1012.4
20260509175236 33 238 8.0 22.5 0.00 0.00 0.00 53 1012.6
20260509174706 33 253 6.4 22.5 0.00 0.00 0.00 52 1012.6
20260509174206 33 248 9.7 22.5 0.00 0.00 0.00 54 1012.7
20260509173707 33 249 9.7 22.5 0.00 0.00 0.00 54 1012.7
20260509173135 33 258 8.0 17.7 0.00 0.00 0.00 53 1012.8
20260509172636 33 266 6.4 17.7 0.00 0.00 0.00 54 1012.7
20260509172106 33 260 8.0 17.7 0.00 0.00 0.00 53 1012.8
20260509171605 33 256 9.7 17.7 0.00 0.00 0.00 53 1012.9
20260509171035 33 251 9.7 22.5 0.00 0.00 0.00 53 1012.9
20260509165936 33 242 8.0 17.7 0.00 0.00 0.00 52 1012.8
20260509165436 33 238 8.0 17.7 0.00 0.00 0.00 54 1012.9
20260509163406 33 237 8.0 20.9 0.00 0.00 0.00 53 1013.0
20260509162835 33 238 8.0 17.7 0.00 0.00 0.00 55 1013.1
20260509162336 33 236 8.0 27.4 0.00 0.00 0.00 55 1013.1
20260509161836 32 229 8.0 27.4 0.00 0.00 0.00 55 1013.1
20260509161336 32 227 8.0 20.9 0.00 0.00 0.00 57 1013.3
20260509160806 32 236 8.0 20.9 0.00 0.00 0.00 56 1013.3
20260509155236 32 215 6.4 19.3 0.00 0.00 0.00 57 1013.3
20260509154236 31 233 6.4 14.5 0.00 0.00 0.00 60 1013.6
20260509152706 31 217 4.8 14.5 0.00 0.00 0.00 63 1013.7
20260509151636 31 201 4.8 9.7 0.00 0.00 0.00 64 1013.9
20260509151106 30 197 4.8 11.3 0.00 0.00 0.00 64 1014.0
20260509150605 30 180 4.8 14.5 0.00 0.00 0.00 65 1014.0
20260509150105 30 176 4.8 14.5 0.00 0.00 0.00 65 1014.1
20260509145606 30 184 4.8 12.9 0.00 0.00 0.00 66 1014.0
20260509145035 30 188 4.8 14.5 0.00 0.00 0.00 67 1013.9
20260509144536 30 170 3.2 14.5 0.00 0.00 0.00 68 1013.9
20260509144110 30 103 3.2 9.7 0.00 0.00 0.00 74 1014.0
20260509144005 30 103 3.2 9.7 0.00 0.00 0.00 74 1014.0
20260509143436 29 99 4.8 9.7 0.00 0.00 0.00 78 1014.0
20260509142936 29 93 3.2 6.4 0.00 0.00 0.00 78 1014.0
20260509142406 28 108 3.2 6.4 0.00 0.00 0.00 80 1014.0
20260509140835 27 62 3.2 4.8 0.00 0.00 0.00 84 1014.1
20260509140518 27 66 3.2 6.4 0.00 0.00 0.00 84 1014.2
20260509140336 27 66 3.2 6.4 0.00 0.00 0.00 84 1014.2
20260509135836 27 83 3.2 6.4 0.00 0.00 0.00 85 1014.3
20260509134805 26 88 3.2 6.4 0.00 0.00 0.00 86 1014.3
20260509133236 26 38 3.2 6.4 0.00 0.00 0.00 87 1014.3
20260509132706 26 37 3.2 6.4 0.00 0.00 0.00 88 1014.2
20260509132206 26 61 3.2 4.8 0.00 0.00 0.00 89 1014.3
20260509131706 26 61 3.2 4.8 0.00 0.00 0.00 89 1014.3
20260509131135 26 56 3.2 4.8 0.00 0.00 0.00 88 1014.2
20260509130635 26 71 3.2 4.8 0.00 0.00 0.00 87 1014.2
20260509130135 26 72 1.6 4.8 0.00 0.00 0.00 86 1014.2
20260509125636 26 49 1.6 4.8 0.00 0.00 0.00 87 1014.0
20260509125459 26 54 1.6 4.8 0.00 0.00 0.00 86 1014.2
20260509125135 26 54 1.6 4.8 0.00 0.00 0.00 86 1014.2
20260509123605 25 355 1.6 3.2 0.00 0.00 0.00 90 1014.0
20260509122605 25 49 0.0 3.2 0.00 0.00 0.00 92 1014.0
20260509122035 24 90 1.6 3.2 0.00 0.00 0.00 93 1014.1
20260509121505 24 98 1.6 4.8 0.00 0.00 0.00 93 1013.9
20260509121005 24 105 1.6 4.8 0.00 0.00 0.00 94 1013.8
20260509120436 24 103 3.2 6.4 0.00 0.00 0.00 95 1013.6
20260509115335 24 101 1.6 6.4 0.00 0.00 0.00 96 1013.6
20260509114336 23 106 1.6 4.8 0.00 0.00 0.00 99 1013.3